GW3028 Weather Reports


Display with metric or nautical units.
time (UTC)temp
F
wind
direction
speed
MPH
gust
MPH
rain 1hr
in
rain 24hr
in
rain mn
in
humidity
%
barometer
mb
20260510033503 47 52 0.0 0.0 0.00 0.38 0.38 98 1009.7
20260510033000 47 52 0.0 0.0 0.00 0.38 0.38 98 1009.7
20260510032456 47 52 0.0 0.0 0.00 0.38 0.38 98 1009.6
20260510031951 47 45 0.0 0.0 0.00 0.38 0.38 98 1009.5
20260510031447 47 58 0.0 0.0 0.00 0.38 0.38 98 1009.6
20260510030943 47 60 0.0 0.0 0.00 0.38 0.38 98 1009.4
20260510030438 47 77 0.0 0.0 0.00 0.38 0.38 98 1009.4
20260510025936 48 58 0.0 0.0 0.00 0.38 0.38 98 1009.8
20260510025433 48 56 0.0 0.0 0.00 0.38 0.38 98 1009.6
20260510024931 48 58 0.0 0.0 0.00 0.38 0.38 98 1009.2
20260510024427 48 56 0.0 0.0 0.00 0.38 0.38 98 1009.5
20260510023923 48 70 0.0 0.0 0.00 0.38 0.38 98 1009.5
20260510023419 48 70 0.0 0.0 0.00 0.38 0.38 98 1009.7
20260510022917 48 69 0.0 0.0 0.00 0.38 0.38 98 1009.7
20260510022415 48 69 0.0 0.0 0.00 0.38 0.38 98 1009.6
20260510021915 49 82 0.0 1.0 0.00 0.38 0.38 98 1009.5
20260510021413 49 40 0.0 0.0 0.00 0.38 0.38 98 1009.7
20260510020909 49 21 0.0 0.0 0.00 0.38 0.38 98 1009.7
20260510020404 49 37 0.0 0.0 0.00 0.38 0.38 98 1009.6
20260510015900 49 40 0.0 0.0 0.00 0.38 0.38 97 1009.5
20260510015356 49 64 0.0 0.0 0.00 0.38 0.38 97 1009.3
20260510014851 49 64 0.0 0.0 0.00 0.38 0.38 97 1009.6
20260510014349 50 52 0.0 0.0 0.00 0.38 0.38 97 1009.2
20260510013845 50 63 0.0 0.0 0.00 0.38 0.38 97 1009.4
20260510013341 50 2 0.0 1.0 0.00 0.38 0.38 97 1009.5
20260510012836 50 38 0.0 0.0 0.00 0.38 0.38 97 1009.5
20260510012335 50 61 0.0 0.0 0.00 0.38 0.38 97 1009.2
20260510011831 50 62 0.0 0.0 0.00 0.38 0.38 97 1009.3
20260510011326 50 58 0.0 0.0 0.00 0.38 0.38 97 1009.0
20260510010823 51 58 0.0 0.0 0.00 0.38 0.38 97 1009.2
20260510010320 51 58 0.0 0.0 0.00 0.38 0.38 97 1009.4
20260510005817 51 37 0.0 0.0 0.00 0.38 0.38 97 1009.2
20260510005313 51 40 0.0 0.0 0.00 0.38 0.38 97 1009.3
20260510004811 51 50 0.0 0.0 0.00 0.38 0.38 97 1009.0
20260510004308 51 40 0.0 0.0 0.00 0.38 0.38 96 1008.9
20260510003806 51 358 0.0 0.0 0.00 0.38 0.38 96 1009.2
20260510003303 51 358 0.0 0.0 0.00 0.38 0.38 96 1009.0
20260510002801 51 342 0.0 0.0 0.00 0.38 0.38 96 1008.9
20260510002259 52 3 1.0 1.0 0.00 0.38 0.38 95 1008.8
20260510001755 52 359 1.0 1.0 0.00 0.38 0.38 95 1008.7
20260510001254 52 354 0.0 0.0 0.00 0.38 0.38 94 1008.6
20260510000749 52 63 0.0 0.0 0.00 0.38 0.38 94 1008.5
20260510000248 52 63 0.0 0.0 0.00 0.38 0.38 94 1008.5
20260509235744 52 51 0.0 0.0 0.00 0.38 0.38 93 1008.6
20260509235240 53 39 0.0 0.0 0.00 0.38 0.38 93 1008.6
20260509234736 53 39 0.0 0.0 0.00 0.38 0.38 93 1008.2
20260509234233 53 23 0.0 1.0 0.00 0.38 0.38 93 1008.1
20260509233731 53 9 1.0 1.0 0.00 0.38 0.38 93 1007.8
20260509233229 53 15 1.0 1.0 0.00 0.38 0.38 93 1007.8
20260509232724 54 18 1.0 1.0 0.00 0.38 0.38 92 1007.8
20260509232222 54 28 0.0 1.0 0.00 0.38 0.38 92 1007.6
20260509231718 54 354 2.0 2.0 0.00 0.38 0.38 92 1007.8
20260509231215 55 44 0.0 0.0 0.00 0.38 0.38 91 1007.7
20260509230713 56 36 1.0 1.0 0.00 0.38 0.38 91 1007.8
20260509230209 56 45 0.0 0.0 0.00 0.38 0.38 91 1007.7
20260509225705 57 23 0.0 0.0 0.00 0.38 0.38 91 1007.9
20260509225201 57 41 0.0 0.0 0.00 0.38 0.38 91 1007.9
20260509224656 57 358 1.0 1.0 0.00 0.38 0.38 91 1008.0
20260509224154 57 20 1.0 1.0 0.00 0.38 0.38 90 1008.0
20260509223650 57 37 0.0 0.0 0.00 0.38 0.38 91 1008.1
20260509223142 56 23 1.0 1.0 0.00 0.38 0.38 91 1007.9
20260509222639 56 35 1.0 1.0 0.00 0.38 0.38 91 1007.9
20260509222134 55 85 1.0 1.0 0.00 0.38 0.38 92 1008.1
20260509221630 56 53 0.0 0.0 0.00 0.38 0.38 92 1008.2
20260509221126 55 49 0.0 0.0 0.00 0.38 0.38 92 1008.4
20260509220622 55 49 0.0 0.0 0.00 0.38 0.38 92 1008.2
20260509220119 55 57 0.0 0.0 0.00 0.38 0.38 92 1008.4
20260509215615 55 57 0.0 0.0 0.00 0.38 0.38 92 1008.3
20260509215112 55 57 0.0 0.0 0.00 0.38 0.38 92 1008.4
20260509214608 55 9 1.0 1.0 0.00 0.38 0.38 92 1008.3
20260509214105 55 354 2.0 2.0 0.00 0.38 0.38 91 1008.6
20260509213601 54 23 1.0 1.0 0.00 0.38 0.38 91 1008.5
20260509213058 55 39 1.0 1.0 0.00 0.38 0.38 91 1008.4
20260509212555 54 6 1.0 2.0 0.00 0.38 0.38 92 1008.5
20260509212053 55 344 1.0 1.0 0.00 0.38 0.38 93 1008.5
20260509211548 54 44 0.0 1.0 0.00 0.38 0.38 93 1008.4
20260509211045 53 70 1.0 1.0 0.00 0.38 0.38 93 1008.3
20260509210542 53 69 0.0 0.0 0.00 0.38 0.38 93 1008.3
20260509210037 53 68 0.0 0.0 0.00 0.38 0.38 93 1008.6
20260509205532 53 85 0.0 0.0 0.00 0.38 0.38 93 1008.5
20260509205027 54 53 0.0 1.0 0.00 0.38 0.38 93 1008.8
20260509204524 54 82 1.0 1.0 0.07 0.38 0.38 92 1009.0
20260509204015 54 43 0.0 0.0 0.12 0.38 0.38 92 1008.9
20260509203511 54 49 0.0 0.0 0.05 0.37 0.37 92 1008.9
20260509203009 54 49 0.0 0.0 0.00 0.36 0.36 92 1009.0
20260509202509 54 48 0.0 0.0 0.07 0.36 0.36 92 1009.0
20260509202005 54 29 1.0 1.0 0.07 0.36 0.36 92 1009.0
20260509201500 54 90 1.0 1.0 0.00 0.35 0.35 92 1008.9
20260509200958 54 44 1.0 1.0 0.00 0.35 0.35 92 1009.0
20260509200452 53 49 0.0 0.0 0.00 0.35 0.35 92 1008.8
20260509195949 54 347 2.0 2.0 0.00 0.35 0.35 92 1009.1
20260509195445 54 21 1.0 1.0 0.00 0.35 0.35 93 1009.4
20260509194944 54 42 0.0 0.0 0.00 0.35 0.35 93 1009.4
20260509194440 53 52 0.0 0.0 0.05 0.35 0.35 93 1009.5
20260509193937 53 55 0.0 0.0 0.05 0.35 0.35 93 1009.5
20260509193437 53 37 0.0 0.0 0.07 0.34 0.34 92 1009.4
20260509192933 53 44 0.0 0.0 0.07 0.34 0.34 92 1009.6
20260509192430 53 39 1.0 1.0 0.00 0.33 0.33 92 1009.9
20260509191925 53 315 1.0 2.0 0.07 0.33 0.33 92 1010.0
20260509191420 53 59 0.0 1.0 0.07 0.33 0.33 92 1009.8
20260509190916 53 30 0.0 0.0 0.05 0.32 0.32 92 1009.9
20260509190414 53 348 3.0 5.0 0.17 0.32 0.32 92 1009.8
20260509185912 53 339 1.0 2.0 0.19 0.31 0.31 92 1010.0
20260509185409 53 348 2.0 2.0 0.17 0.30 0.30 92 1010.1
20260509184905 53 332 3.0 3.0 0.12 0.28 0.28 92 1010.0
20260509184402 53 34 1.0 2.0 0.12 0.27 0.27 91 1010.1
20260509183859 53 331 2.0 3.0 0.05 0.26 0.26 91 1010.1
20260509183354 53 295 5.0 6.0 0.07 0.25 0.25 90 1009.8
20260509182850 53 235 3.0 3.0 0.19 0.25 0.25 91 1009.9
20260509182347 54 2 3.0 3.0 0.12 0.24 0.24 91 1009.9
20260509181844 54 32 0.0 1.0 0.05 0.22 0.22 91 1009.8
20260509181341 54 13 2.0 2.0 0.07 0.21 0.21 91 1010.0
20260509180839 54 30 1.0 2.0 0.07 0.20 0.20 91 1009.9
20260509180335 54 10 1.0 2.0 0.12 0.20 0.20 91 1009.9
20260509175832 54 25 1.0 2.0 0.05 0.19 0.19 91 1010.0
20260509175328 54 30 1.0 1.0 0.07 0.18 0.18 90 1010.0
20260509174824 54 328 3.0 3.0 0.07 0.18 0.18 91 1009.8
20260509174320 54 47 2.0 2.0 0.00 0.17 0.17 91 1009.8
20260509173816 54 50 1.0 1.0 0.00 0.17 0.17 90 1010.0
20260509173311 54 17 1.0 1.0 0.00 0.17 0.17 91 1009.9
20260509172808 53 16 1.0 1.0 0.00 0.17 0.17 91 1009.9
20260509172306 53 330 3.0 3.0 0.00 0.17 0.17 91 1009.8
20260509171801 53 7 1.0 1.0 0.05 0.17 0.17 91 1010.0
20260509171256 53 36 3.0 3.0 0.05 0.17 0.17 90 1010.0
20260509170753 53 338 4.0 5.0 0.07 0.16 0.16 90 1009.9
20260509170249 53 301 3.0 3.0 0.07 0.16 0.16 89 1010.0
20260509165748 53 320 1.0 1.0 0.05 0.15 0.15 90 1010.0
20260509165243 53 317 3.0 3.0 0.05 0.15 0.15 89 1010.0
20260509164739 53 315 3.0 3.0 0.00 0.14 0.14 89 1010.1
20260509164235 54 90 1.0 1.0 0.00 0.14 0.14 90 1009.9
20260509163733 54 33 0.0 0.0 0.00 0.14 0.14 90 1010.1
20260509163229 54 87 1.0 1.0 0.00 0.14 0.14 91 1010.0
20260509162727 53 56 0.0 0.0 0.00 0.14 0.14 90 1010.2
20260509162222 53 48 0.0 0.0 0.00 0.14 0.14 91 1010.0
20260509161718 53 56 0.0 0.0 0.00 0.14 0.14 92 1010.0
20260509161214 53 33 0.0 1.0 0.00 0.14 0.14 92 1009.9
20260509160709 53 49 0.0 0.0 0.00 0.14 0.14 92 1009.9
20260509160206 53 35 0.0 1.0 0.00 0.14 0.14 92 1010.0
20260509155701 52 50 2.0 2.0 0.00 0.14 0.14 92 1010.2
20260509155158 52 51 0.0 0.0 0.00 0.14 0.14 93 1010.3
20260509154654 51 101 1.0 2.0 0.00 0.14 0.14 93 1010.3
20260509154151 51 91 1.0 2.0 0.00 0.14 0.14 93 1010.5
20260509153648 51 107 1.0 1.0 0.00 0.14 0.14 93 1010.8
20260509153145 51 88 0.0 1.0 0.07 0.14 0.14 93 1010.8
20260509152640 51 86 1.0 1.0 0.07 0.14 0.14 93 1010.8
20260509152138 51 70 1.0 1.0 0.00 0.13 0.13 93 1011.0
20260509151634 51 84 1.0 1.0 0.00 0.13 0.13 93 1011.0
20260509151132 50 83 1.0 2.0 0.00 0.13 0.13 93 1010.7
20260509150630 51 81 1.0 1.0 0.00 0.13 0.13 93 1010.7
20260509150128 50 104 1.0 2.0 0.00 0.13 0.13 93 1010.8
20260509145624 50 87 1.0 1.0 0.05 0.13 0.13 93 1011.1
20260509145119 50 106 1.0 2.0 0.05 0.13 0.13 93 1010.7
20260509144616 50 51 0.0 1.0 0.00 0.12 0.12 93 1010.7
20260509144113 50 52 2.0 2.0 0.00 0.12 0.12 93 1010.6
20260509143610 51 86 1.0 1.0 0.00 0.12 0.12 93 1010.6
20260509143107 50 69 1.0 1.0 0.00 0.12 0.12 93 1010.8
20260509142602 50 65 0.0 0.0 0.00 0.12 0.12 93 1010.8
20260509142059 50 61 2.0 2.0 0.00 0.12 0.12 93 1010.8
20260509141555 50 97 1.0 1.0 0.00 0.12 0.12 92 1010.4
20260509141051 50 46 0.0 0.0 0.00 0.12 0.12 92 1010.7
20260509140549 50 68 1.0 1.0 0.00 0.12 0.12 92 1010.4
20260509140047 50 8 1.0 2.0 0.07 0.12 0.12 93 1010.4
20260509135543 50 48 1.0 2.0 0.07 0.12 0.12 93 1010.6
20260509135041 50 30 1.0 1.0 0.00 0.11 0.11 94 1010.6
20260509134538 50 108 1.0 1.0 0.00 0.11 0.11 95 1010.7
20260509134036 50 33 1.0 2.0 0.00 0.11 0.11 96 1010.8
20260509133532 50 97 2.0 2.0 0.00 0.11 0.11 96 1010.7
20260509133030 50 72 0.0 1.0 0.00 0.11 0.11 96 1011.0
20260509132528 50 113 1.0 1.0 0.00 0.11 0.11 96 1011.1
20260509132026 49 65 0.0 0.0 0.00 0.11 0.11 96 1011.1
20260509131522 49 97 1.0 1.0 0.05 0.11 0.11 96 1011.1
20260509131019 49 95 2.0 2.0 0.05 0.11 0.11 96 1011.1
20260509130514 49 99 4.0 5.0 0.00 0.10 0.10 96 1011.1
20260509130012 49 62 0.0 0.0 0.00 0.10 0.10 96 1011.3
20260509125508 49 69 0.0 0.0 0.00 0.10 0.10 96 1011.2
20260509125004 49 84 0.0 0.0 0.00 0.10 0.10 96 1011.3
20260509124501 49 33 0.0 0.0 0.07 0.10 0.10 97 1011.2
20260509123958 48 31 0.0 0.0 0.07 0.10 0.10 97 1011.1
20260509123456 49 348 1.0 1.0 0.00 0.09 0.09 97 1011.3
20260509122951 49 64 0.0 0.0 0.00 0.09 0.09 97 1011.2
20260509122449 48 109 1.0 1.0 0.00 0.09 0.09 97 1011.0
20260509121945 48 79 1.0 1.0 0.00 0.09 0.09 97 1011.0
20260509121442 48 102 0.0 0.0 0.00 0.09 0.09 97 1011.1
20260509120940 48 77 0.0 1.0 0.00 0.09 0.09 97 1010.7
20260509120438 48 58 0.0 0.0 0.00 0.09 0.09 97 1011.0
20260509115936 48 58 0.0 0.0 0.00 0.09 0.09 97 1010.6
20260509115432 48 92 0.0 1.0 0.00 0.09 0.09 97 1010.8
20260509114930 48 120 1.0 1.0 0.05 0.09 0.09 97 1010.8
20260509114429 47 70 0.0 0.0 0.05 0.09 0.09 97 1010.8
20260509113928 47 115 1.0 1.0 0.00 0.08 0.08 97 1010.7
20260509113425 47 112 2.0 2.0 0.00 0.08 0.08 97 1010.6
20260509112921 47 100 0.0 0.0 0.00 0.08 0.08 97 1011.0
20260509112419 47 126 2.0 2.0 0.00 0.08 0.08 97 1010.8
20260509111915 47 120 1.0 2.0 0.00 0.08 0.08 97 1011.1
20260509111412 47 105 0.0 0.0 0.00 0.08 0.08 97 1011.1
20260509110910 47 122 1.0 1.0 0.00 0.08 0.08 97 1011.2
20260509110406 47 63 0.0 0.0 0.00 0.08 0.08 97 1011.2
20260509105904 47 55 0.0 0.0 0.00 0.08 0.08 97 1011.3
20260509105402 46 55 0.0 0.0 0.07 0.08 0.08 97 1011.1
20260509104859 46 94 0.0 0.0 0.07 0.08 0.08 97 1011.3
20260509104355 46 78 0.0 0.0 0.00 0.07 0.07 97 1011.2
20260509103853 46 89 0.0 0.0 0.00 0.07 0.07 97 1011.3
20260509103350 46 63 0.0 0.0 0.00 0.07 0.07 97 1011.2
20260509102849 46 74 0.0 0.0 0.00 0.07 0.07 97 1010.8
20260509102346 46 63 0.0 0.0 0.00 0.07 0.07 97 1011.0
20260509101841 46 57 0.0 0.0 0.00 0.07 0.07 97 1010.7
20260509101338 46 78 0.0 0.0 0.00 0.07 0.07 97 1010.8
20260509100836 46 78 0.0 0.0 0.00 0.07 0.07 97 1011.1
20260509100333 46 52 0.0 0.0 0.00 0.07 0.07 97 1011.0
20260509095829 46 64 0.0 0.0 0.00 0.07 0.07 97 1011.2
20260509095327 46 79 0.0 0.0 0.00 0.07 0.07 96 1011.0
20260509094824 46 78 0.0 0.0 0.00 0.07 0.07 96 1010.8
20260509094320 46 89 0.0 0.0 0.00 0.07 0.07 96 1011.3
20260509093818 46 92 0.0 0.0 0.00 0.07 0.07 96 1011.4
20260509093315 46 56 0.0 0.0 0.00 0.07 0.07 96 1011.3
20260509092814 46 56 0.0 0.0 0.00 0.07 0.07 96 1011.3
20260509092311 46 56 0.0 0.0 0.00 0.07 0.07 96 1011.5
20260509091809 46 78 0.0 0.0 0.00 0.07 0.07 96 1011.4
20260509091305 46 78 0.0 0.0 0.00 0.07 0.07 96 1011.2
20260509090803 46 59 0.0 0.0 0.00 0.07 0.07 96 1011.6
20260509090300 46 42 0.0 0.0 0.00 0.07 0.07 96 1011.6
20260509085757 46 78 0.0 0.0 0.00 0.07 0.07 96 1011.6
20260509085254 46 81 0.0 0.0 0.00 0.07 0.07 96 1011.4
20260509084751 46 47 0.0 0.0 0.00 0.07 0.07 96 1011.5
20260509084247 46 49 0.0 0.0 0.00 0.07 0.07 95 1011.4
20260509083746 46 87 0.0 0.0 0.00 0.07 0.07 95 1011.4
20260509083242 46 89 0.0 0.0 0.00 0.07 0.07 95 1011.6
20260509082738 46 101 0.0 0.0 0.00 0.07 0.07 95 1011.4
20260509082235 46 29 0.0 0.0 0.00 0.07 0.07 95 1011.5
20260509081732 46 68 0.0 0.0 0.00 0.07 0.07 94 1011.5
20260509081230 46 68 0.0 0.0 0.00 0.07 0.07 94 1011.8
20260509080728 46 69 0.0 0.0 0.00 0.07 0.07 94 1011.8
20260509080225 46 68 0.0 0.0 0.00 0.07 0.07 94 1011.7
20260509075723 46 69 0.0 0.0 0.00 0.07 0.07 93 1011.8
20260509075221 46 106 0.0 0.0 0.00 0.07 0.07 93 1011.6
20260509074717 46 18 0.0 0.0 0.00 0.07 0.07 93 1011.7
20260509074215 46 80 0.0 0.0 0.00 0.07 0.07 92 1011.4
20260509073711 46 25 0.0 0.0 0.00 0.07 0.07 92 1011.2
20260509073207 46 35 0.0 0.0 0.00 0.07 0.07 91 1011.3
20260509072704 46 79 0.0 0.0 0.00 0.07 0.07 91 1011.3
20260509072201 46 79 0.0 0.0 0.00 0.07 0.07 91 1011.1
20260509071657 46 51 0.0 0.0 0.00 0.07 0.07 90 1011.2
20260509071155 46 79 0.0 0.0 0.00 0.07 0.07 90 1011.2
20260509070652 46 56 0.0 0.0 0.00 0.07 0.07 90 1011.2
20260509070148 46 51 0.0 0.0 0.00 0.07 0.07 90 1011.6
20260509065644 46 51 0.0 0.0 0.07 0.07 0.07 89 1011.7
20260509065140 46 35 0.0 0.0 0.07 0.07 0.07 88 1011.5
20260509064637 46 58 0.0 0.0 0.05 0.06 0.06 88 1012.0
20260509064135 46 72 0.0 0.0 0.05 0.06 0.06 88 1011.9
20260509063632 45 63 0.0 0.0 0.07 0.05 0.05 87 1011.6
20260509063128 45 48 0.0 0.0 0.12 0.05 0.05 87 1011.8
20260509062626 45 60 0.0 0.0 0.12 0.04 0.04 87 1011.9
20260509062123 45 32 0.0 1.0 0.07 0.03 0.03 87 1012.0
20260509061619 45 47 0.0 0.0 0.05 0.02 0.02 86 1012.1
20260509061117 45 35 0.0 1.0 0.12 0.02 0.02 86 1012.1
20260509060615 45 92 0.0 1.0 0.07 0.01 0.01 85 1012.1
20260509060110 45 70 0.0 0.0 0.00 0.00 0.00 85 1011.7
20260509055606 45 14 1.0 1.0 0.00 0.00 0.00 85 1011.8
20260509055102 45 305 2.0 2.0 0.00 0.00 0.00 85 1012.1
20260509054559 45 307 3.0 3.0 0.00 0.00 0.00 85 1012.3
20260509054057 45 308 2.0 2.0 0.00 0.00 0.00 85 1012.1
20260509053555 45 321 1.0 2.0 0.00 0.00 0.00 85 1011.7
20260509053052 45 325 2.0 2.0 0.00 0.00 0.00 85 1011.8
20260509052549 45 0 1.0 2.0 0.00 0.00 0.00 85 1011.7
20260509052047 45 64 0.0 0.0 0.00 0.00 0.00 85 1011.8
20260509051545 45 84 0.0 1.0 0.00 0.00 0.00 85 1011.8
20260509051041 45 54 0.0 0.0 0.00 0.00 0.00 85 1011.9
20260509050539 45 36 0.0 1.0 0.00 0.00 0.00 85 1011.9
20260509050035 45 72 0.0 0.0 0.00 0.00 0.00 85 1011.7
20260509045532 45 79 1.0 1.0 0.00 0.00 0.00 85 1012.0
20260509045029 45 52 0.0 0.0 0.00 0.00 0.00 85 1011.9
20260509044527 45 40 0.0 0.0 0.00 0.00 0.00 85 1012.0
20260509044024 45 27 1.0 1.0 0.00 0.00 0.00 85 1011.9
20260509043520 44 17 1.0 1.0 0.00 0.00 0.00 85 1011.9
20260509043016 44 42 0.0 0.0 0.00 0.00 0.00 85 1012.2
20260509042512 44 25 0.0 1.0 0.00 0.00 0.00 85 1012.0
20260509042009 44 67 0.0 1.0 0.00 0.00 0.00 85 1012.0
20260509041505 44 20 1.0 1.0 0.00 0.00 0.00 85 1012.2
20260509041003 44 11 1.0 1.0 0.00 0.00 0.00 85 1012.0
20260509040501 44 30 0.0 1.0 0.00 0.00 0.00 85 1012.2
20260509035957 44 34 0.0 0.0 0.00 0.07 0.07 85 1012.1
20260509035455 44 5 1.0 1.0 0.00 0.07 0.07 85 1012.2
20260509034951 44 7 1.0 1.0 0.00 0.07 0.07 84 1012.2
20260509034449 44 31 0.0 0.0 0.00 0.07 0.07 84 1012.0
20260509033946 45 342 1.0 1.0 0.00 0.07 0.07 84 1012.1